TimeEDT,TemperatureF,Dew PointF,Humidity,Sea Level PressureIn,VisibilityMPH,Wind Direction,Wind SpeedMPH,Gust SpeedMPH,PrecipitationIn,Events,Conditions,WindDirDegrees,DateUTC
12:53 AM,50.0,30.0,46,30.18,10.0,Calm,Calm,-,N/A,,Clear,0,2013-05-14 04:53:00
1:53 AM,48.0,30.0,50,30.17,10.0,Calm,Calm,-,N/A,,Clear,0,2013-05-14 05:53:00
2:53 AM,46.0,32.0,58,30.17,10.0,SSE,3.5,-,N/A,,Clear,160,2013-05-14 06:53:00
3:53 AM,45.0,32.0,60,30.17,10.0,SSE,3.5,-,N/A,,Clear,160,2013-05-14 07:53:00
4:53 AM,41.0,35.1,79,30.17,10.0,Calm,Calm,-,N/A,,Clear,0,2013-05-14 08:53:00
5:53 AM,39.9,35.1,83,30.18,10.0,Calm,Calm,-,N/A,,Clear,0,2013-05-14 09:53:00
6:53 AM,41.0,35.1,79,30.19,10.0,Calm,Calm,-,N/A,,Clear,0,2013-05-14 10:53:00
7:53 AM,44.1,36.0,73,30.18,10.0,Calm,Calm,-,N/A,,Mostly Cloudy,0,2013-05-14 11:53:00
8:53 AM,48.0,37.0,66,30.19,10.0,Calm,Calm,-,N/A,,Overcast,0,2013-05-14 12:53:00
9:53 AM,51.1,39.0,63,30.19,10.0,Calm,Calm,-,N/A,,Overcast,0,2013-05-14 13:53:00
10:53 AM,57.0,39.0,51,30.17,10.0,Variable,6.9,-,N/A,,Partly Cloudy,0,2013-05-14 14:53:00
11:53 AM,63.0,37.9,40,30.15,10.0,Variable,6.9,-,N/A,,Clear,0,2013-05-14 15:53:00
12:53 PM,66.9,41.0,39,30.11,10.0,Variable,4.6,-,N/A,,Clear,0,2013-05-14 16:53:00
1:53 PM,71.1,44.1,38,30.07,10.0,South,8.1,-,N/A,,Clear,170,2013-05-14 17:53:00
2:53 PM,73.9,46.9,38,30.04,10.0,Variable,4.6,-,N/A,,Clear,0,2013-05-14 18:53:00
3:53 PM,73.9,46.9,38,30.00,10.0,SSW,8.1,17.3,N/A,,Clear,200,2013-05-14 19:53:00
4:53 PM,75.9,48.9,38,29.99,10.0,Variable,4.6,-,N/A,,Clear,0,2013-05-14 20:53:00
5:53 PM,78.1,51.1,39,29.96,10.0,Calm,Calm,-,N/A,,Clear,0,2013-05-14 21:53:00
6:53 PM,75.9,50.0,40,29.94,10.0,Variable,4.6,-,N/A,,Clear,0,2013-05-14 22:53:00
7:53 PM,73.0,50.0,44,29.93,10.0,Variable,4.6,-,N/A,,Clear,0,2013-05-14 23:53:00
8:53 PM,70.0,50.0,49,29.94,10.0,Variable,5.8,-,N/A,,Scattered Clouds,0,2013-05-15 00:53:00
9:53 PM,69.1,50.0,51,29.96,10.0,Calm,Calm,-,N/A,,Clear,0,2013-05-15 01:53:00
10:53 PM,66.9,50.0,54,29.97,10.0,SSW,4.6,-,N/A,,Clear,210,2013-05-15 02:53:00
11:53 PM,66.0,51.1,59,29.98,10.0,Calm,Calm,-,N/A,,Clear,0,2013-05-15 03:53:00